Regional Weather Roundup
Issued by NWS

Home | Current Version | Previous Version | Text Only | Print | Product List | Glossary On
Versions: 1 2 3 4 5 6 7 8 9 10 11 12 13 14 15 16 17 18 19 20 21 22 23 24 25 26 27
000
ASUS45 KREV 262010
RWRNV
NEVADA REGIONAL WEATHER ROUNDUP
NATIONAL WEATHER SERVICE RENO NV
100 PM PDT TUE JUL 26 2016

NOTE: "FAIR" INDICATES FEW OR NO CLOUDS BELOW 12,000 FEET WITH NO
SIGNIFICANT WEATHER AND/OR OBSTRUCTIONS TO VISIBILITY.

NVZ001-003-004-262100-
WESTERN NEVADA

CITY           SKY/WX    TMP DP  RH WIND       PRES   REMARKS
RENO           MOSUNNY   92  23   8 SW5       30.12F
CARSON CITY    FAIR      91  19   7 N5        30.14F
MINDEN         FAIR      91  32  12 CALM      30.14F
SLIDE MTN        N/A     70  12  11 W7          N/A
PYRAMID LAKE     N/A     84 N/A N/A N7          N/A
FALLON         CLOUDY    94  30  10 VRB3      30.08F
LOVELOCK       SUNNY     97  30   9 S8        30.07F
HAWTHORNE      SUNNY     93  28  10 NW8       30.09F
$$

NVZ002-CAZ072-073-262100-
NORTHERN AND CENTRAL SIERRA

CITY           SKY/WX    TMP DP  RH WIND       PRES   REMARKS
S. LAKE TAHOE  SUNNY     79  38  22 NE7       30.28F
TRUCKEE        SUNNY     84  34  16 NW5       30.25F
SQUAW VLY 8000 NOT AVBL
SUSANVILLE     SUNNY     91  36  14 NE8       30.12F
MAMMOTH LAKES    N/A     88  25  10 SE7       30.32F
BRIDGEPORT       N/A     91  13   5 S7        30.26F
$$

NVZ030-031-036-262100-
NORTHERN NEVADA

CITY           SKY/WX    TMP DP  RH WIND       PRES   REMARKS
ELKO           SUNNY     95  13   5 SW8G20    30.14F
WINNEMUCCA     SUNNY     96  25   8 W14G23    30.09F
WENDOVER       SUNNY     93  34  12 E10       30.05F
$$

NVZ035-037-262100-
CENTRAL NEVADA

CITY           SKY/WX    TMP DP  RH WIND       PRES   REMARKS
ELY            SUNNY     92  15   6 VRB6G18   30.22F
EUREKA           N/A     93  19   7 SE5       30.19F
$$

NVZ013-014-262100-
SOUTH CENTRAL NEVADA

CITY           SKY/WX    TMP DP  RH WIND       PRES   REMARKS
TONOPAH        SUNNY     94  22   7 VRB7G16   30.18F
$$

NVZ017-020-022-262100-
SOUTHERN NEVADA

CITY           SKY/WX    TMP DP  RH WIND       PRES   REMARKS
LAS VEGAS      MOSUNNY  107  45  12 NE9       29.86F
N. LAS VEGAS   SUNNY    104  50  16 SE6       29.89F
NELLIS AFB     SUNNY    105  51  16 S6        29.86F
HENDERSON      SUNNY    107  53  16 VRB6      29.93F HX 105
MERCURY        SUNNY    103  42  12 W9        29.99F
$$




USA.gov is the U.S. government's official web portal to all federal, state and local government web resources and services.